date,time,SUV Intensity [MED/Hr],UV Index,Daily total [MED],Since Last [MED]
01/08/2022,00:11:06,0.000,0.0,0.0,0.0
01/08/2022,00:12:06,-0.000,0.0,0.0,0.0
01/08/2022,00:13:06,0.000,0.0,0.0,0.0
01/08/2022,00:14:06,0.000,0.0,0.0,0.0
01/08/2022,00:15:06,0.000,0.0,0.0,0.0
01/08/2022,00:16:06,-0.000,0.0,0.0,0.0
01/08/2022,00:17:15,0.000,0.0,0.0,0.0
01/08/2022,00:18:06,-0.000,0.0,0.0,0.0
01/08/2022,00:19:06,0.000,0.0,0.0,0.0
01/08/2022,00:20:06,0.000,0.0,0.0,0.0
01/08/2022,00:21:07,0.000,0.0,0.0,0.0
01/08/2022,00:22:06,0.000,0.0,0.0,0.0
01/08/2022,00:23:06,-0.000,0.0,0.0,0.0
01/08/2022,00:24:06,0.000,0.0,0.0,0.0
01/08/2022,00:25:06,-0.000,0.0,0.0,0.0
01/08/2022,00:26:07,-0.000,0.0,0.0,0.0
01/08/2022,00:27:06,-0.000,0.0,0.0,0.0
01/08/2022,00:28:06,-0.000,0.0,0.0,0.0
01/08/2022,00:29:08,-0.000,0.0,0.0,0.0
01/08/2022,00:30:06,0.000,0.0,0.0,0.0
01/08/2022,00:31:06,0.000,0.0,0.0,0.0
01/08/2022,00:32:06,-0.000,0.0,0.0,0.0
01/08/2022,00:33:06,-0.000,0.0,0.0,0.0
01/08/2022,00:34:06,-0.000,0.0,0.0,0.0
01/08/2022,00:35:06,0.000,0.0,0.0,0.0
01/08/2022,00:36:07,-0.000,0.0,0.0,0.0
01/08/2022,00:37:06,0.000,0.0,0.0,0.0
01/08/2022,00:38:06,-0.000,0.0,0.0,0.0
01/08/2022,00:39:06,-0.000,0.0,0.0,0.0
01/08/2022,00:40:07,0.000,0.0,0.0,0.0
01/08/2022,00:41:14,0.000,0.0,0.0,0.0
01/08/2022,00:42:06,-0.000,0.0,0.0,0.0
01/08/2022,00:43:06,-0.000,0.0,0.0,0.0
01/08/2022,00:44:06,0.000,0.0,0.0,0.0
01/08/2022,00:45:06,-0.000,0.0,0.0,0.0
01/08/2022,00:46:15,-0.000,0.0,0.0,0.0
01/08/2022,00:47:07,0.000,0.0,0.0,0.0
01/08/2022,00:48:06,-0.000,0.0,0.0,0.0
01/08/2022,00:49:06,-0.000,0.0,0.0,0.0
01/08/2022,00:50:07,-0.000,0.0,0.0,0.0
01/08/2022,00:51:06,-0.000,0.0,0.0,0.0
01/08/2022,00:52:06,-0.000,0.0,0.0,0.0
01/08/2022,00:53:07,-0.000,0.0,0.0,0.0
01/08/2022,00:54:06,-0.000,0.0,0.0,0.0
01/08/2022,00:55:06,0.000,0.0,0.0,0.0
01/08/2022,00:56:07,-0.000,0.0,0.0,0.0
01/08/2022,00:57:06,-0.000,0.0,0.0,0.0
01/08/2022,00:58:06,0.000,0.0,0.0,0.0
01/08/2022,00:59:06,-0.000,0.0,0.0,0.0
01/08/2022,01:00:08,-0.000,0.0,0.0,0.0
01/08/2022,01:01:06,-0.001,0.0,0.0,0.0
01/08/2022,01:02:06,-0.000,0.0,0.0,0.0
01/08/2022,01:03:07,-0.000,0.0,0.0,0.0
01/08/2022,01:04:06,0.000,0.0,0.0,0.0
01/08/2022,01:05:06,-0.000,0.0,0.0,0.0
01/08/2022,01:06:07,-0.000,0.0,0.0,0.0
01/08/2022,01:07:06,0.000,0.0,0.0,0.0
01/08/2022,01:08:06,-0.001,0.0,0.0,0.0
01/08/2022,01:09:06,-0.000,0.0,0.0,0.0
01/08/2022,01:10:15,-0.000,0.0,0.0,0.0
01/08/2022,01:11:06,-0.000,0.0,0.0,0.0
01/08/2022,01:12:15,-0.000,0.0,0.0,0.0
01/08/2022,01:13:06,-0.000,0.0,0.0,0.0
01/08/2022,01:14:07,0.000,0.0,0.0,0.0
01/08/2022,01:15:14,0.000,0.0,0.0,0.0
01/08/2022,01:16:06,-0.000,0.0,0.0,0.0
01/08/2022,01:17:06,-0.000,0.0,0.0,0.0
01/08/2022,01:18:06,-0.000,0.0,0.0,0.0
01/08/2022,01:19:06,-0.000,0.0,0.0,0.0
01/08/2022,01:20:06,-0.001,0.0,0.0,0.0
01/08/2022,01:21:06,0.000,0.0,0.0,0.0
01/08/2022,01:22:06,-0.000,0.0,0.0,0.0
01/08/2022,01:23:06,-0.000,0.0,0.0,0.0
01/08/2022,01:24:06,-0.000,0.0,0.0,0.0
01/08/2022,01:25:06,-0.000,0.0,0.0,0.0
01/08/2022,01:26:06,-0.000,0.0,0.0,0.0
01/08/2022,01:27:07,-0.000,0.0,0.0,0.0
01/08/2022,01:28:06,-0.000,0.0,0.0,0.0
01/08/2022,01:29:07,-0.000,0.0,0.0,0.0
01/08/2022,01:30:07,-0.000,0.0,0.0,0.0
01/08/2022,01:31:06,-0.000,0.0,0.0,0.0
01/08/2022,01:32:06,-0.000,0.0,0.0,0.0
01/08/2022,01:33:07,0.000,0.0,0.0,0.0
01/08/2022,01:34:06,0.000,0.0,0.0,0.0
01/08/2022,01:35:06,-0.001,0.0,0.0,0.0
01/08/2022,01:36:06,-0.000,0.0,0.0,0.0
01/08/2022,01:37:06,-0.000,0.0,0.0,0.0
01/08/2022,01:38:06,-0.000,0.0,0.0,0.0
01/08/2022,01:39:15,-0.000,0.0,0.0,0.0
01/08/2022,01:40:07,-0.000,0.0,0.0,0.0
01/08/2022,01:41:15,0.000,0.0,0.0,0.0
01/08/2022,01:42:06,0.000,0.0,0.0,0.0
01/08/2022,01:43:06,-0.000,0.0,0.0,0.0
01/08/2022,01:44:15,-0.000,0.0,0.0,0.0
01/08/2022,01:45:06,-0.000,0.0,0.0,0.0
01/08/2022,01:46:07,-0.001,0.0,0.0,0.0
01/08/2022,01:47:06,-0.000,0.0,0.0,0.0
01/08/2022,01:48:06,0.000,0.0,0.0,0.0
01/08/2022,01:49:06,-0.000,0.0,0.0,0.0
01/08/2022,01:50:07,-0.000,0.0,0.0,0.0
01/08/2022,01:51:06,-0.000,0.0,0.0,0.0
01/08/2022,01:52:07,-0.000,0.0,0.0,0.0
01/08/2022,01:53:06,-0.000,0.0,0.0,0.0
01/08/2022,01:54:07,-0.000,0.0,0.0,0.0
01/08/2022,01:55:06,-0.000,0.0,0.0,0.0
01/08/2022,01:56:06,0.000,0.0,0.0,0.0
01/08/2022,01:57:06,-0.000,0.0,0.0,0.0
01/08/2022,01:58:07,0.000,0.0,0.0,0.0
01/08/2022,01:59:06,-0.000,0.0,0.0,0.0
01/08/2022,02:00:06,-0.000,0.0,0.0,0.0
01/08/2022,02:01:06,-0.000,0.0,0.0,0.0
01/08/2022,02:02:08,-0.000,0.0,0.0,0.0
01/08/2022,02:03:06,-0.000,0.0,0.0,0.0
01/08/2022,02:04:06,-0.000,0.0,0.0,0.0
01/08/2022,02:05:07,-0.000,0.0,0.0,0.0
01/08/2022,02:06:06,-0.000,0.0,0.0,0.0
01/08/2022,02:07:06,-0.001,0.0,0.0,0.0
01/08/2022,02:08:07,-0.000,0.0,0.0,0.0
01/08/2022,02:09:06,-0.000,0.0,0.0,0.0
01/08/2022,02:10:06,0.000,0.0,0.0,0.0
01/08/2022,02:11:08,0.000,0.0,0.0,0.0
01/08/2022,02:12:07,-0.000,0.0,0.0,0.0
01/08/2022,02:13:15,0.000,0.0,0.0,0.0
01/08/2022,02:14:06,0.000,0.0,0.0,0.0
01/08/2022,02:15:06,0.000,0.0,0.0,0.0
01/08/2022,02:16:07,0.000,0.0,0.0,0.0
01/08/2022,02:17:06,0.000,0.0,0.0,0.0
01/08/2022,02:18:07,0.000,0.0,0.0,0.0
01/08/2022,02:19:07,0.000,0.0,0.0,0.0
01/08/2022,02:20:06,0.000,0.0,0.0,0.0
01/08/2022,02:21:07,0.000,0.0,0.0,0.0
01/08/2022,02:22:07,0.000,0.0,0.0,0.0
01/08/2022,02:23:06,0.000,0.0,0.0,0.0
01/08/2022,02:24:07,0.000,0.0,0.0,0.0
01/08/2022,02:25:06,0.000,0.0,0.0,0.0
01/08/2022,02:26:06,0.000,0.0,0.0,0.0
01/08/2022,02:27:06,0.000,0.0,0.0,0.0
01/08/2022,02:28:07,0.000,0.0,0.0,0.0
01/08/2022,02:29:07,0.000,0.0,0.0,0.0
01/08/2022,02:30:06,0.000,0.0,0.0,0.0
01/08/2022,02:31:06,0.000,0.0,0.0,0.0
01/08/2022,02:32:06,0.000,0.0,0.0,0.0
01/08/2022,02:33:07,0.000,0.0,0.0,0.0
01/08/2022,02:34:14,0.000,0.0,0.0,0.0
01/08/2022,02:35:06,0.000,0.0,0.0,0.0
01/08/2022,02:36:07,0.000,0.0,0.0,0.0
01/08/2022,02:37:06,0.000,0.0,0.0,0.0
01/08/2022,02:38:06,0.000,0.0,0.0,0.0
01/08/2022,02:39:06,0.000,0.0,0.0,0.0
01/08/2022,02:40:06,0.000,0.0,0.0,0.0
01/08/2022,02:41:07,0.000,0.0,0.0,0.0
01/08/2022,02:42:06,0.000,0.0,0.0,0.0
01/08/2022,02:43:06,0.000,0.0,0.0,0.0
01/08/2022,02:44:06,0.000,0.0,0.0,0.0
01/08/2022,02:45:07,0.000,0.0,0.0,0.0
01/08/2022,02:46:06,0.000,0.0,0.0,0.0
01/08/2022,02:47:06,0.000,0.0,0.0,0.0
01/08/2022,02:48:06,0.000,0.0,0.0,0.0
01/08/2022,02:49:07,0.000,0.0,0.0,0.0
01/08/2022,02:50:06,0.000,0.0,0.0,0.0
01/08/2022,02:51:10,0.000,0.0,0.0,0.0
01/08/2022,02:52:07,0.000,0.0,0.0,0.0
01/08/2022,02:53:06,0.000,0.0,0.0,0.0
01/08/2022,02:54:06,0.000,0.0,0.0,0.0
01/08/2022,02:55:07,0.000,0.0,0.0,0.0
01/08/2022,02:56:06,0.000,0.0,0.0,0.0
01/08/2022,02:57:14,0.000,0.0,0.0,0.0
01/08/2022,02:58:07,0.000,0.0,0.0,0.0
01/08/2022,02:59:06,0.000,0.0,0.0,0.0
01/08/2022,03:00:15,0.000,0.0,0.0,0.0
01/08/2022,03:01:07,0.000,0.0,0.0,0.0
01/08/2022,03:02:06,0.000,0.0,0.0,0.0
01/08/2022,03:03:07,0.000,0.0,0.0,0.0
01/08/2022,03:04:06,0.000,0.0,0.0,0.0
01/08/2022,03:05:06,0.000,0.0,0.0,0.0
01/08/2022,03:06:07,0.000,0.0,0.0,0.0
01/08/2022,03:07:06,0.000,0.0,0.0,0.0
01/08/2022,03:08:06,0.000,0.0,0.0,0.0
01/08/2022,03:09:07,0.000,0.0,0.0,0.0
01/08/2022,03:10:06,0.000,0.0,0.0,0.0
01/08/2022,03:11:07,0.000,0.0,0.0,0.0
01/08/2022,03:12:08,0.000,0.0,0.0,0.0
01/08/2022,03:13:07,0.000,0.0,0.0,0.0
01/08/2022,03:14:06,0.000,0.0,0.0,0.0
01/08/2022,03:15:15,0.000,0.0,0.0,0.0
01/08/2022,03:16:06,0.000,0.0,0.0,0.0
01/08/2022,03:17:06,0.000,0.0,0.0,0.0
01/08/2022,03:18:15,0.000,0.0,0.0,0.0
01/08/2022,03:19:06,0.000,0.0,0.0,0.0
01/08/2022,03:20:06,0.000,0.0,0.0,0.0
01/08/2022,03:21:07,0.000,0.0,0.0,0.0
01/08/2022,03:22:07,0.000,0.0,0.0,0.0
01/08/2022,03:23:07,0.000,0.0,0.0,0.0
01/08/2022,03:24:08,0.000,0.0,0.0,0.0
01/08/2022,03:25:07,0.000,0.0,0.0,0.0
01/08/2022,03:26:15,0.000,0.0,0.0,0.0
01/08/2022,03:27:08,0.000,0.0,0.0,0.0
01/08/2022,03:28:06,0.000,0.0,0.0,0.0
01/08/2022,03:29:15,0.000,0.0,0.0,0.0
01/08/2022,03:30:07,0.000,0.0,0.0,0.0
01/08/2022,03:30:58,0.000,0.0,0.0,0.0
01/08/2022,03:32:07,0.000,0.0,0.0,0.0
01/08/2022,03:33:07,0.000,0.0,0.0,0.0
01/08/2022,03:34:06,0.000,0.0,0.0,0.0
01/08/2022,03:35:07,0.000,0.0,0.0,0.0
01/08/2022,03:36:06,0.001,0.0,0.0,0.0
01/08/2022,03:37:06,0.000,0.0,0.0,0.0
01/08/2022,03:38:07,0.000,0.0,0.0,0.0
01/08/2022,03:39:07,0.000,0.0,0.0,0.0
01/08/2022,03:40:06,0.000,0.0,0.0,0.0
01/08/2022,03:41:07,0.000,0.0,0.0,0.0
01/08/2022,03:42:06,0.000,0.0,0.0,0.0
01/08/2022,03:43:07,0.000,0.0,0.0,0.0
01/08/2022,03:44:15,0.000,0.0,0.0,0.0
01/08/2022,03:45:06,0.000,0.0,0.0,0.0
01/08/2022,03:46:07,0.000,0.0,0.0,0.0
01/08/2022,03:47:15,0.000,0.0,0.0,0.0
01/08/2022,03:48:07,0.000,0.0,0.0,0.0
01/08/2022,03:49:07,0.000,0.0,0.0,0.0
01/08/2022,03:50:06,0.000,0.0,0.0,0.0
01/08/2022,03:51:06,0.000,0.0,0.0,0.0
01/08/2022,03:52:07,0.000,0.0,0.0,0.0
01/08/2022,03:53:15,0.000,0.0,0.0,0.0
01/08/2022,03:54:06,0.000,0.0,0.0,0.0
01/08/2022,03:55:14,0.000,0.0,0.0,0.0
01/08/2022,03:56:07,0.000,0.0,0.0,0.0
01/08/2022,03:57:07,0.000,0.0,0.0,0.0
01/08/2022,03:58:06,0.001,0.0,0.0,0.0
01/08/2022,03:59:06,0.000,0.0,0.0,0.0
01/08/2022,04:00:07,0.000,0.0,0.0,0.0
01/08/2022,04:01:10,0.000,0.0,0.0,0.0
01/08/2022,04:02:07,0.000,0.0,0.0,0.0
01/08/2022,04:03:06,0.000,0.0,0.0,0.0
01/08/2022,04:04:07,0.001,0.0,0.0,0.0
01/08/2022,04:05:07,0.000,0.0,0.0,0.0
01/08/2022,04:06:07,0.000,0.0,0.0,0.0
01/08/2022,04:07:07,0.000,0.0,0.0,0.0
01/08/2022,04:08:06,0.000,0.0,0.0,0.0
01/08/2022,04:09:07,0.000,0.0,0.0,0.0
01/08/2022,04:10:07,0.000,0.0,0.0,0.0
01/08/2022,04:11:06,0.001,0.0,0.0,0.0
01/08/2022,04:12:07,0.000,0.0,0.0,0.0
01/08/2022,04:13:15,0.000,0.0,0.0,0.0
01/08/2022,04:14:06,0.000,0.0,0.0,0.0
01/08/2022,04:15:07,0.000,0.0,0.0,0.0
01/08/2022,04:16:15,0.000,0.0,0.0,0.0
01/08/2022,04:17:06,0.000,0.0,0.0,0.0
01/08/2022,04:18:07,0.000,0.0,0.0,0.0
01/08/2022,04:19:23,0.000,0.0,0.0,0.0
01/08/2022,04:21:07,0.000,0.0,0.0,0.0
01/08/2022,04:22:07,0.001,0.0,0.0,0.0
01/08/2022,04:23:07,0.001,0.0,0.0,0.0
01/08/2022,04:24:07,0.000,0.0,0.0,0.0
01/08/2022,04:25:06,0.000,0.0,0.0,0.0
01/08/2022,04:26:06,0.001,0.0,0.0,0.0
01/08/2022,04:27:07,0.001,0.0,0.0,0.0
01/08/2022,04:28:07,0.001,0.0,0.0,0.0
01/08/2022,04:29:06,0.000,0.0,0.0,0.0
01/08/2022,04:30:07,0.001,0.0,0.0,0.0
01/08/2022,04:31:06,0.002,0.0,0.0,0.0
01/08/2022,04:32:06,0.001,0.0,0.0,0.0
01/08/2022,04:33:07,0.000,0.0,0.0,0.0
01/08/2022,04:34:06,0.000,0.0,0.0,0.0
01/08/2022,04:35:07,0.001,0.0,0.0,0.0
01/08/2022,04:36:07,0.001,0.0,0.0,0.0
01/08/2022,04:37:15,0.001,0.0,0.0,0.0
01/08/2022,04:38:06,0.001,0.0,0.0,0.0
01/08/2022,04:39:14,0.000,0.0,0.0,0.0
01/08/2022,04:40:07,0.002,0.0,0.0,0.0
01/08/2022,04:41:07,0.003,0.0,0.0,0.0
01/08/2022,04:42:15,0.001,0.0,0.0,0.0
01/08/2022,04:43:07,0.001,0.0,0.0,0.0
01/08/2022,04:44:07,0.002,0.0,0.0,0.0
01/08/2022,04:45:06,0.002,0.0,0.0,0.0
01/08/2022,04:46:07,0.002,0.0,0.0,0.0
01/08/2022,04:47:07,0.002,0.0,0.0,0.0
01/08/2022,04:48:15,0.002,0.0,0.0,0.0
01/08/2022,04:49:07,0.001,0.0,0.0,0.0
01/08/2022,04:50:07,0.003,0.0,0.0,0.0
01/08/2022,04:51:07,0.002,0.0,0.0,0.0
01/08/2022,04:52:06,0.003,0.0,0.0,0.0
01/08/2022,04:53:23,0.002,0.0,0.0,0.0
01/08/2022,04:55:07,0.003,0.0,0.0,0.0
01/08/2022,04:56:07,0.002,0.0,0.0,0.0
01/08/2022,04:57:07,0.002,0.0,0.0,0.0
01/08/2022,04:58:07,0.002,0.0,0.0,0.0
01/08/2022,04:59:06,0.003,0.0,0.0,0.0
01/08/2022,05:00:07,0.003,0.0,0.0,0.0
01/08/2022,05:01:07,0.002,0.0,0.0,0.0
01/08/2022,05:02:07,0.004,0.0,0.0,0.0
01/08/2022,05:03:15,0.004,0.0,0.0,0.0
01/08/2022,05:04:08,0.004,0.0,0.0,0.0
01/08/2022,05:05:06,0.005,0.0,0.0,0.0
01/08/2022,05:06:07,0.005,0.0,0.0,0.0
01/08/2022,05:07:06,0.005,0.0,0.0,0.0
01/08/2022,05:08:07,0.005,0.0,0.0,0.0
01/08/2022,05:09:07,0.005,0.0,0.0,0.0
01/08/2022,05:10:07,0.005,0.0,0.0,0.0
01/08/2022,05:11:07,0.005,0.0,0.0,0.0
01/08/2022,05:12:07,0.005,0.0,0.0,0.0
01/08/2022,05:13:06,0.006,0.0,0.0,0.0
01/08/2022,05:14:07,0.005,0.0,0.0,0.0
01/08/2022,05:15:07,0.006,0.0,0.0,0.0
01/08/2022,05:16:07,0.005,0.0,0.0,0.0
01/08/2022,05:17:07,0.007,0.0,0.0,0.0
01/08/2022,05:18:06,0.007,0.0,0.0,0.0
01/08/2022,05:19:07,0.006,0.0,0.0,0.0
01/08/2022,05:20:07,0.008,0.0,0.001,0.001
01/08/2022,05:21:07,0.009,0.0,0.001,0.0
01/08/2022,05:22:06,0.009,0.0,0.001,0.0
01/08/2022,05:23:07,0.010,0.0,0.001,0.0
01/08/2022,05:24:07,0.010,0.0,0.001,0.0
01/08/2022,05:25:06,0.010,0.0,0.001,0.0
01/08/2022,05:26:07,0.012,0.0,0.001,0.0
01/08/2022,05:27:15,0.011,0.0,0.002,0.001
01/08/2022,05:28:07,0.010,0.0,0.002,0.0
01/08/2022,05:29:15,0.011,0.0,0.002,0.0
01/08/2022,05:30:07,0.011,0.0,0.002,0.0
01/08/2022,05:31:06,0.011,0.0,0.002,0.0
01/08/2022,05:32:07,0.011,0.0,0.003,0.001
01/08/2022,05:33:06,0.012,0.0,0.003,0.0
01/08/2022,05:34:07,0.013,0.0,0.003,0.0
01/08/2022,05:35:07,0.014,0.0,0.003,0.0
01/08/2022,05:36:06,0.014,0.0,0.003,0.0
01/08/2022,05:37:07,0.015,0.0,0.004,0.001
01/08/2022,05:38:06,0.015,0.0,0.004,0.0
01/08/2022,05:39:07,0.015,0.0,0.004,0.0
01/08/2022,05:40:06,0.016,0.0,0.004,0.0
01/08/2022,05:41:07,0.014,0.0,0.005,0.001
01/08/2022,05:42:07,0.013,0.0,0.005,0.0
01/08/2022,05:43:06,0.013,0.0,0.005,0.0
01/08/2022,05:44:15,0.013,0.0,0.005,0.0
01/08/2022,05:45:07,0.014,0.0,0.005,0.0
01/08/2022,05:46:07,0.014,0.0,0.006,0.001
01/08/2022,05:47:15,0.015,0.0,0.006,0.0
01/08/2022,05:48:07,0.017,0.0,0.006,0.0
01/08/2022,05:49:07,0.017,0.0,0.006,0.0
01/08/2022,05:50:14,0.018,0.0,0.007,0.001
01/08/2022,05:51:07,0.017,0.0,0.007,0.0
01/08/2022,05:52:07,0.017,0.0,0.007,0.0
01/08/2022,05:53:15,0.016,0.0,0.008,0.001
01/08/2022,05:54:07,0.016,0.0,0.008,0.0
01/08/2022,05:55:07,0.017,0.0,0.008,0.0
01/08/2022,05:56:06,0.017,0.0,0.008,0.0
01/08/2022,05:57:06,0.018,0.0,0.009,0.001
01/08/2022,05:58:07,0.020,0.0,0.009,0.0
01/08/2022,05:59:07,0.020,0.0,0.009,0.0
01/08/2022,06:00:07,0.022,0.0,0.01,0.001
01/08/2022,06:01:07,0.023,0.0,0.01,0.0
01/08/2022,06:02:06,0.025,0.0,0.01,0.0
01/08/2022,06:03:07,0.026,0.0,0.011,0.001
01/08/2022,06:04:07,0.028,0.0,0.011,0.0
01/08/2022,06:05:07,0.028,0.0,0.012,0.001
01/08/2022,06:06:07,0.029,0.0,0.012,0.0
01/08/2022,06:07:07,0.032,0.0,0.013,0.001
01/08/2022,06:08:15,0.033,0.0,0.013,0.0
01/08/2022,06:09:07,0.034,0.0,0.014,0.001
01/08/2022,06:10:06,0.036,0.0,0.014,0.0
01/08/2022,06:11:15,0.039,0.0,0.015,0.001
01/08/2022,06:12:07,0.041,0.0,0.016,0.001
01/08/2022,06:13:15,0.045,0.0,0.017,0.001
01/08/2022,06:14:06,0.045,0.0,0.017,0.0
01/08/2022,06:15:06,0.046,0.0,0.018,0.001
01/08/2022,06:16:07,0.043,0.0,0.019,0.001
01/08/2022,06:17:15,0.042,0.0,0.02,0.001
01/08/2022,06:18:07,0.038,0.0,0.02,0.0
01/08/2022,06:19:15,0.036,0.0,0.021,0.001
01/08/2022,06:20:07,0.034,0.0,0.021,0.0
01/08/2022,06:21:07,0.032,0.0,0.022,0.001
01/08/2022,06:22:16,0.030,0.0,0.022,0.0
01/08/2022,06:23:07,0.030,0.0,0.023,0.001
01/08/2022,06:24:07,0.030,0.0,0.023,0.0
01/08/2022,06:25:07,0.030,0.0,0.024,0.001
01/08/2022,06:26:06,0.031,0.0,0.024,0.0
01/08/2022,06:27:07,0.031,0.0,0.025,0.001
01/08/2022,06:28:06,0.033,0.0,0.025,0.0
01/08/2022,06:29:07,0.037,0.0,0.026,0.001
01/08/2022,06:30:07,0.040,0.0,0.027,0.001
01/08/2022,06:31:07,0.045,0.0,0.027,0.0
01/08/2022,06:32:07,0.046,0.0,0.028,0.001
01/08/2022,06:33:07,0.048,0.0,0.029,0.001
01/08/2022,06:34:07,0.047,0.0,0.03,0.001
01/08/2022,06:35:07,0.048,0.0,0.031,0.001
01/08/2022,06:36:06,0.045,0.0,0.031,0.0
01/08/2022,06:37:15,0.043,0.0,0.032,0.001
01/08/2022,06:38:07,0.043,0.0,0.033,0.001
01/08/2022,06:39:07,0.047,0.0,0.033,0.0
01/08/2022,06:40:06,0.053,0.0,0.034,0.001
01/08/2022,06:41:07,0.064,0.0,0.035,0.001
01/08/2022,06:42:07,0.075,0.0,0.036,0.001
01/08/2022,06:43:07,0.085,0.0,0.038,0.002
01/08/2022,06:44:07,0.091,0.0,0.039,0.001
01/08/2022,06:45:07,0.097,0.0,0.041,0.002
01/08/2022,06:46:07,0.100,0.0,0.042,0.001
01/08/2022,06:47:10,0.101,0.0,0.044,0.002
01/08/2022,06:48:07,0.097,0.0,0.046,0.002
01/08/2022,06:49:07,0.093,0.0,0.047,0.001
01/08/2022,06:50:04,0.091,0.0,0.049,0.002
01/08/2022,06:51:07,0.093,0.0,0.05,0.001
01/08/2022,06:52:07,0.096,0.0,0.052,0.002
01/08/2022,06:53:07,0.097,0.0,0.054,0.002
01/08/2022,06:54:07,0.097,0.0,0.055,0.001
01/08/2022,06:55:06,0.093,0.0,0.057,0.002
01/08/2022,06:56:07,0.091,0.0,0.058,0.001
01/08/2022,06:57:07,0.087,0.0,0.06,0.002
01/08/2022,06:58:06,0.081,0.0,0.061,0.001
01/08/2022,06:59:07,0.078,0.0,0.063,0.002
01/08/2022,07:00:07,0.075,0.0,0.064,0.001
01/08/2022,07:01:15,0.073,0.0,0.065,0.001
01/08/2022,07:02:07,0.074,0.0,0.066,0.001
01/08/2022,07:03:15,0.073,0.0,0.068,0.002
01/08/2022,07:04:07,0.075,0.0,0.069,0.001
01/08/2022,07:05:07,0.075,0.0,0.07,0.001
01/08/2022,07:06:07,0.076,0.0,0.071,0.001
01/08/2022,07:07:07,0.077,0.0,0.072,0.001
01/08/2022,07:08:06,0.079,0.0,0.074,0.002
01/08/2022,07:09:06,0.080,0.0,0.075,0.001
01/08/2022,07:10:07,0.082,0.0,0.076,0.001
01/08/2022,07:11:07,0.086,0.0,0.078,0.002
01/08/2022,07:12:07,0.090,0.0,0.079,0.001
01/08/2022,07:13:07,0.092,0.0,0.081,0.002
01/08/2022,07:14:07,0.094,0.0,0.082,0.001
01/08/2022,07:15:07,0.097,0.0,0.084,0.002
01/08/2022,07:16:07,0.100,0.0,0.086,0.002
01/08/2022,07:17:08,0.103,0.0,0.087,0.001
01/08/2022,07:18:07,0.106,0.0,0.089,0.002
01/08/2022,07:19:07,0.109,0.0,0.091,0.002
01/08/2022,07:20:06,0.109,0.0,0.093,0.002
01/08/2022,07:21:07,0.108,0.0,0.095,0.002
01/08/2022,07:22:07,0.106,0.0,0.096,0.001
01/08/2022,07:23:07,0.105,0.0,0.098,0.002
01/08/2022,07:24:07,0.105,0.0,0.1,0.002
01/08/2022,07:25:07,0.105,0.0,0.102,0.002
01/08/2022,07:26:07,0.105,0.0,0.103,0.001
01/08/2022,07:27:16,0.107,0.0,0.105,0.002
01/08/2022,07:28:07,0.111,0.0,0.107,0.002
01/08/2022,07:29:07,0.116,0.0,0.109,0.002
01/08/2022,07:30:15,0.125,0.0,0.111,0.002
01/08/2022,07:31:06,0.130,0.0,0.113,0.002
01/08/2022,07:32:07,0.130,0.0,0.115,0.002
01/08/2022,07:33:07,0.126,0.0,0.117,0.002
01/08/2022,07:34:07,0.120,0.0,0.119,0.002
01/08/2022,07:35:07,0.115,0.0,0.121,0.002
01/08/2022,07:36:06,0.112,0.0,0.123,0.002
01/08/2022,07:37:07,0.109,0.0,0.125,0.002
01/08/2022,07:38:07,0.109,0.0,0.127,0.002
01/08/2022,07:39:07,0.108,0.0,0.129,0.002
01/08/2022,07:40:07,0.107,0.0,0.13,0.001
01/08/2022,07:41:06,0.105,0.0,0.132,0.002
01/08/2022,07:42:07,0.103,0.0,0.134,0.002
01/08/2022,07:43:07,0.101,0.0,0.136,0.002
01/08/2022,07:44:07,0.100,0.0,0.137,0.001
01/08/2022,07:45:15,0.101,0.0,0.139,0.002
01/08/2022,07:46:07,0.098,0.0,0.141,0.002
01/08/2022,07:47:07,0.099,0.0,0.142,0.001
01/08/2022,07:48:07,0.100,0.0,0.144,0.002
01/08/2022,07:49:07,0.102,0.0,0.146,0.002
01/08/2022,07:50:07,0.106,0.0,0.147,0.001
01/08/2022,07:51:07,0.110,0.0,0.149,0.002
01/08/2022,07:52:07,0.114,0.0,0.151,0.002
01/08/2022,07:53:07,0.117,0.0,0.153,0.002
01/08/2022,07:54:15,0.118,0.0,0.155,0.002
01/08/2022,07:55:07,0.119,0.0,0.157,0.002
01/08/2022,07:56:07,0.119,0.0,0.159,0.002
01/08/2022,07:57:07,0.121,0.0,0.161,0.002
01/08/2022,07:58:07,0.125,0.0,0.163,0.002
01/08/2022,07:59:07,0.134,0.0,0.165,0.002
01/08/2022,08:00:07,0.146,0.0,0.167,0.002
01/08/2022,08:01:07,0.158,0.0,0.17,0.003
01/08/2022,08:02:07,0.173,0.0,0.173,0.003
01/08/2022,08:03:09,0.193,0.0,0.176,0.003
01/08/2022,08:04:07,0.207,0.0,0.179,0.003
01/08/2022,08:05:07,0.215,0.0,0.183,0.004
01/08/2022,08:06:07,0.216,0.0,0.186,0.003
01/08/2022,08:07:07,0.215,0.0,0.19,0.004
01/08/2022,08:08:07,0.215,0.0,0.193,0.003
01/08/2022,08:09:15,0.218,1.0,0.197,0.004
01/08/2022,08:10:07,0.218,1.0,0.201,0.004
01/08/2022,08:11:07,0.218,1.0,0.204,0.003
01/08/2022,08:12:16,0.215,0.0,0.208,0.004
01/08/2022,08:13:07,0.215,0.0,0.211,0.003
01/08/2022,08:14:07,0.217,0.0,0.215,0.004
01/08/2022,08:15:15,0.225,1.0,0.219,0.004
01/08/2022,08:16:06,0.230,1.0,0.222,0.003
01/08/2022,08:17:07,0.239,1.0,0.226,0.004
01/08/2022,08:18:07,0.248,1.0,0.23,0.004
01/08/2022,08:19:07,0.259,1.0,0.235,0.005
01/08/2022,08:20:08,0.272,1.0,0.239,0.004
01/08/2022,08:21:07,0.280,1.0,0.244,0.005
01/08/2022,08:22:07,0.290,1.0,0.248,0.004
01/08/2022,08:23:07,0.302,1.0,0.253,0.005
01/08/2022,08:24:07,0.314,1.0,0.258,0.005
01/08/2022,08:25:07,0.318,1.0,0.264,0.006
01/08/2022,08:26:07,0.309,1.0,0.269,0.005
01/08/2022,08:27:07,0.291,1.0,0.274,0.005
01/08/2022,08:28:07,0.268,1.0,0.279,0.005
01/08/2022,08:29:07,0.253,1.0,0.283,0.004
01/08/2022,08:30:15,0.251,1.0,0.288,0.005
01/08/2022,08:31:07,0.256,1.0,0.291,0.003
01/08/2022,08:32:07,0.266,1.0,0.296,0.005
01/08/2022,08:33:07,0.277,1.0,0.3,0.004
01/08/2022,08:34:07,0.287,1.0,0.305,0.005
01/08/2022,08:35:15,0.302,1.0,0.311,0.006
01/08/2022,08:36:07,0.315,1.0,0.315,0.004
01/08/2022,08:37:07,0.335,1.0,0.32,0.005
01/08/2022,08:38:07,0.356,1.0,0.326,0.006
01/08/2022,08:39:07,0.374,1.0,0.332,0.006
01/08/2022,08:40:07,0.390,1.0,0.339,0.007
01/08/2022,08:41:09,0.405,1.0,0.345,0.006
01/08/2022,08:42:07,0.414,1.0,0.352,0.007
01/08/2022,08:43:07,0.416,1.0,0.359,0.007
01/08/2022,08:44:07,0.413,1.0,0.366,0.007
01/08/2022,08:45:07,0.407,1.0,0.373,0.007
01/08/2022,08:46:07,0.402,1.0,0.38,0.007
01/08/2022,08:47:07,0.403,1.0,0.386,0.006
01/08/2022,08:48:07,0.410,1.0,0.393,0.007
01/08/2022,08:49:07,0.416,1.0,0.4,0.007
01/08/2022,08:50:07,0.424,1.0,0.407,0.007
01/08/2022,08:51:07,0.429,1.0,0.414,0.007
01/08/2022,08:52:07,0.431,1.0,0.421,0.007
01/08/2022,08:53:07,0.432,1.0,0.428,0.007
01/08/2022,08:54:07,0.433,1.0,0.436,0.008
01/08/2022,08:55:07,0.435,1.0,0.443,0.007
01/08/2022,08:56:07,0.440,1.0,0.45,0.007
01/08/2022,08:57:07,0.442,1.0,0.458,0.008
01/08/2022,08:58:08,0.448,1.0,0.465,0.007
01/08/2022,08:59:06,0.454,1.0,0.472,0.007
01/08/2022,09:00:16,0.464,1.0,0.481,0.009
01/08/2022,09:01:06,0.468,1.0,0.488,0.007
01/08/2022,09:02:07,0.468,1.0,0.496,0.008
01/08/2022,09:03:19,0.466,1.0,0.505,0.009
01/08/2022,09:05:09,0.462,1.0,0.519,0.014
01/08/2022,09:06:07,0.459,1.0,0.526,0.007
01/08/2022,09:07:07,0.460,1.0,0.534,0.008
01/08/2022,09:08:07,0.467,1.0,0.542,0.008
01/08/2022,09:09:07,0.481,1.0,0.55,0.008
01/08/2022,09:10:08,0.507,1.0,0.558,0.008
01/08/2022,09:11:07,0.544,1.0,0.567,0.009
01/08/2022,09:12:07,0.588,1.0,0.576,0.009
01/08/2022,09:13:07,0.625,1.0,0.586,0.01
01/08/2022,09:14:07,0.649,1.0,0.597,0.011
01/08/2022,09:15:08,0.677,2.0,0.608,0.011
01/08/2022,09:16:07,0.705,2.0,0.62,0.012
01/08/2022,09:17:07,0.726,2.0,0.632,0.012
01/08/2022,09:18:07,0.741,2.0,0.644,0.012
01/08/2022,09:19:07,0.764,2.0,0.656,0.012
01/08/2022,09:20:07,0.809,2.0,0.669,0.013
01/08/2022,09:21:07,0.809,2.0,0.683,0.014
01/08/2022,09:22:07,0.832,2.0,0.697,0.014
01/08/2022,09:23:07,0.820,2.0,0.711,0.014
01/08/2022,09:24:07,0.811,2.0,0.724,0.013
01/08/2022,09:25:07,0.797,2.0,0.738,0.014
01/08/2022,09:26:15,0.802,2.0,0.753,0.015
01/08/2022,09:27:07,0.822,2.0,0.764,0.011
01/08/2022,09:28:07,0.844,2.0,0.778,0.014
01/08/2022,09:29:07,0.840,2.0,0.793,0.015
01/08/2022,09:30:07,0.793,2.0,0.806,0.013
01/08/2022,09:31:07,0.780,2.0,0.82,0.014
01/08/2022,09:32:07,0.773,2.0,0.832,0.012
01/08/2022,09:33:07,0.772,2.0,0.845,0.013
01/08/2022,09:34:07,0.775,2.0,0.858,0.013
01/08/2022,09:35:15,0.797,2.0,0.873,0.015
01/08/2022,09:36:07,0.803,2.0,0.885,0.012
01/08/2022,09:37:07,0.801,2.0,0.898,0.013
01/08/2022,09:38:07,0.783,2.0,0.911,0.013
01/08/2022,09:39:07,0.766,2.0,0.924,0.013
01/08/2022,09:40:07,0.744,2.0,0.936,0.012
01/08/2022,09:41:09,0.732,2.0,0.949,0.013
01/08/2022,09:42:07,0.743,2.0,0.961,0.012
01/08/2022,09:43:07,0.764,2.0,0.974,0.013
01/08/2022,09:44:07,0.793,2.0,0.986,0.012
01/08/2022,09:45:07,0.834,2.0,1.0,0.014
01/08/2022,09:46:08,0.856,2.0,1.015,0.015
01/08/2022,09:47:07,0.861,2.0,1.029,0.014
01/08/2022,09:48:08,0.841,2.0,1.043,0.014
01/08/2022,09:49:07,0.803,2.0,1.056,0.013
01/08/2022,09:50:15,0.774,2.0,1.071,0.015
01/08/2022,09:51:07,0.772,2.0,1.082,0.011
01/08/2022,09:52:08,0.776,2.0,1.096,0.014
01/08/2022,09:53:07,0.792,2.0,1.108,0.012
01/08/2022,09:54:07,0.817,2.0,1.122,0.014
01/08/2022,09:55:07,0.832,2.0,1.136,0.014
01/08/2022,09:56:07,0.819,2.0,1.149,0.013
01/08/2022,09:57:07,0.791,2.0,1.163,0.014
01/08/2022,09:58:07,0.775,2.0,1.176,0.013
01/08/2022,09:59:08,0.781,2.0,1.189,0.013
01/08/2022,10:00:07,0.792,2.0,1.202,0.013
01/08/2022,10:01:07,0.789,2.0,1.215,0.013
01/08/2022,10:02:08,0.792,2.0,1.229,0.014
01/08/2022,10:03:07,0.796,2.0,1.242,0.013
01/08/2022,10:04:07,0.811,2.0,1.255,0.013
01/08/2022,10:05:15,0.855,2.0,1.271,0.016
01/08/2022,10:06:07,0.899,2.0,1.283,0.012
01/08/2022,10:07:15,0.974,2.0,1.302,0.019
01/08/2022,10:08:07,0.900,2.0,1.315,0.013
01/08/2022,10:09:07,0.882,2.0,1.329,0.014
01/08/2022,10:10:15,0.851,2.0,1.346,0.017
01/08/2022,10:11:07,0.840,2.0,1.358,0.012
01/08/2022,10:12:08,0.832,2.0,1.372,0.014